TimeEST,TemperatureF,Dew PointF,Humidity,Sea Level PressureIn,VisibilityMPH,Wind Direction,Wind SpeedMPH,Gust SpeedMPH,PrecipitationIn,Events,Conditions,WindDirDegrees,DateUTC
12:53 AM,73.9,62.1,66,30.15,10.0,East,3.5,-,N/A,,Clear,80,2012-11-27 05:53:00
1:53 AM,73.9,63.0,68,30.14,10.0,ESE,4.6,-,N/A,,Clear,120,2012-11-27 06:53:00
2:53 AM,73.9,64.0,71,30.12,10.0,ESE,6.9,-,N/A,,Scattered Clouds,120,2012-11-27 07:53:00
3:53 AM,75.0,63.0,66,30.12,10.0,ESE,9.2,-,0.00,,Overcast,120,2012-11-27 08:53:00
4:53 AM,73.9,63.0,68,30.11,10.0,ESE,6.9,-,N/A,,Scattered Clouds,120,2012-11-27 09:53:00
5:53 AM,73.9,63.0,68,30.12,10.0,ESE,6.9,-,N/A,,Partly Cloudy,120,2012-11-27 10:53:00
6:53 AM,73.9,63.0,68,30.14,10.0,ESE,5.8,-,N/A,,Clear,110,2012-11-27 11:53:00
7:53 AM,75.0,64.0,69,30.15,10.0,ESE,6.9,-,N/A,,Scattered Clouds,120,2012-11-27 12:53:00
8:53 AM,77.0,64.9,66,30.16,10.0,ESE,6.9,-,N/A,,Partly Cloudy,110,2012-11-27 13:53:00
9:53 AM,77.0,64.0,64,30.17,10.0,East,5.8,-,N/A,,Scattered Clouds,100,2012-11-27 14:53:00
10:53 AM,79.0,64.0,60,30.16,10.0,ESE,8.1,-,N/A,,Clear,120,2012-11-27 15:53:00
11:53 AM,79.0,64.9,62,30.16,10.0,ESE,6.9,-,N/A,,Overcast,120,2012-11-27 16:53:00
12:53 PM,80.1,64.9,60,30.13,10.0,ESE,6.9,-,N/A,,Clear,120,2012-11-27 17:53:00
1:53 PM,81.0,64.9,58,30.10,10.0,ESE,5.8,-,N/A,,Clear,110,2012-11-27 18:53:00
3:53 PM,78.1,64.0,62,30.08,10.0,East,4.6,-,N/A,,Clear,100,2012-11-27 20:53:00
4:53 PM,77.0,64.0,64,30.09,10.0,East,4.6,-,N/A,,Clear,100,2012-11-27 21:53:00
5:53 PM,77.0,64.0,64,30.11,10.0,Calm,Calm,-,N/A,,Overcast,0,2012-11-27 22:53:00
6:53 PM,75.9,64.9,69,30.12,10.0,Calm,Calm,-,N/A,,Scattered Clouds,0,2012-11-27 23:53:00
7:53 PM,77.0,64.9,66,30.13,10.0,ESE,3.5,-,N/A,,Overcast,110,2012-11-28 00:53:00
8:53 PM,73.0,64.9,76,30.14,10.0,NE,4.6,-,N/A,,Clear,40,2012-11-28 01:53:00
9:53 PM,72.0,66.0,81,30.14,10.0,NE,3.5,-,N/A,,Mostly Cloudy,50,2012-11-28 02:53:00
10:53 PM,71.1,64.9,81,30.14,10.0,Calm,Calm,-,N/A,,Clear,0,2012-11-28 03:53:00
11:53 PM,71.1,64.9,81,30.13,10.0,Calm,Calm,-,N/A,,Clear,0,2012-11-28 04:53:00